Weather History for KPEQ - February, 2014

Change the Weather History Date:

Wednesday, February 12, 2014

  Actual Average Record
Temperature  
Mean Temperature 40 °F -  
Max Temperature 63 °F 65 °F 93 °F (1962)
Min Temperature 17 °F 30 °F 10 °F (1981)
Degree Days  
Heating Degree Days 25    
Moisture  
Dew Point 20 °F    
Average Humidity 54    
Maximum Humidity 89    
Minimum Humidity 19    
Precipitation  
Precipitation 0.00 in - - ()
Sea Level Pressure  
Sea Level Pressure 30.14 in    
Wind  
Wind Speed 5 mph (West)    
Max Wind Speed 10 mph    
Max Gust Speed 17 mph    
Visibility 8 miles    
Events      
Averages and records for this station are not official NWS values.
T = Trace of Precipitation, MM = Missing Value Source: NWS Daily Summary

Daily Weather History Graph

Daily Weather History Graph

Search for Another Location

Airport or City:

Trip Planner

Search our weather history database for the weather conditions in past years. The results will help you decide how hot, cold, wet, or windy it might be!

Date:

Astronomy

Feb. 12, 2014 Rise Set
Actual Time 7:38 AM CST 6:38 PM CST
Civil Twilight 7:13 AM CST 7:03 PM CST
Nautical Twilight 6:44 AM CST 7:32 PM CST
Astronomical Twilight 6:16 AM CST 8:00 PM CST
Moon 4:57 PM CST (2/12) 5:53 AM CST (2/12)
Length of Visible Light 11h 50m
Length of Day
11h 00m
Waxing Gibbous, 95% of the Moon is Illuminated
Feb 12
Waxing Gibbous
Feb 14
Full
Feb 22
Last Quarter
Mar 1
New
Mar 8
First Quarter

Hourly Weather History & Observations

Time (CST) Temp. Windchill Dew Point Humidity Pressure Visibility Wind Dir Wind Speed Gust Speed Precip Events Conditions
12:15 AM 23.0 °F 14.7 °F 18.5 °F 83% 30.16 in 7.0 mi SSW 6.9 mph - N/A   Clear
12:35 AM 23.0 °F 14.7 °F 18.5 °F 83% 30.16 in 7.0 mi SW 6.9 mph - N/A   Clear
12:55 AM 22.1 °F 14.7 °F 18.1 °F 85% 30.16 in 7.0 mi SW 5.8 mph - N/A   Clear
1:15 AM 21.9 °F 15.7 °F 18.0 °F 85% 30.15 in 7.0 mi SSW 4.6 mph - N/A   Clear
1:35 AM 21.9 °F 13.4 °F 18.1 °F 85% 30.14 in 7.0 mi SSW 6.9 mph - N/A   Clear
1:55 AM 22.1 °F 17.4 °F 18.3 °F 85% 30.13 in 7.0 mi South 3.5 mph - N/A   Clear
2:15 AM 22.1 °F - 18.1 °F 85% 30.15 in 7.0 mi Calm Calm - N/A   Clear
2:35 AM 21.2 °F - 17.2 °F 85% 30.14 in 7.0 mi Calm Calm - N/A   Clear
2:55 AM 20.3 °F - 16.7 °F 86% 30.13 in 7.0 mi Calm Calm - N/A   Clear
3:15 AM 19.8 °F - 16.3 °F 87% 30.12 in 7.0 mi Calm Calm - N/A   Clear
3:35 AM 19.2 °F - 15.6 °F 86% 30.12 in 7.0 mi Calm Calm - N/A   Clear
3:55 AM 19.9 °F - 16.3 °F 86% 30.12 in 7.0 mi Calm Calm - N/A   Clear
4:15 AM 19.9 °F - 16.0 °F 85% 30.11 in 7.0 mi Calm Calm - N/A   Clear
4:35 AM 19.9 °F 14.9 °F 15.8 °F 84% 30.12 in 7.0 mi NNE 3.5 mph - N/A   Clear
4:55 AM 19.9 °F 13.4 °F 16.3 °F 86% 30.12 in 7.0 mi NE 4.6 mph - N/A   Clear
5:15 AM 20.1 °F 13.6 °F 16.5 °F 86% 30.12 in 7.0 mi NNE 4.6 mph - N/A   Clear
5:35 AM 20.8 °F 16.0 °F 17.2 °F 86% 30.14 in 7.0 mi North 3.5 mph - N/A   Clear
5:55 AM 21.0 °F - 17.4 °F 86% 30.15 in 7.0 mi Calm Calm - N/A   Clear
6:15 AM 19.9 °F - 16.0 °F 85% 30.16 in 7.0 mi Calm Calm - N/A   Clear
6:35 AM 18.7 °F - 14.9 °F 85% 30.17 in 7.0 mi Calm Calm - N/A   Clear
6:55 AM 18.5 °F 13.3 °F 14.9 °F 86% 30.18 in 7.0 mi WNW 3.5 mph - N/A   Clear
7:15 AM 17.4 °F 12.1 °F 14.2 °F 87% 30.18 in 7.0 mi West 3.5 mph - N/A   Clear
7:35 AM 17.2 °F 10.2 °F 14.0 °F 87% 30.18 in 7.0 mi WSW 4.6 mph - N/A   Clear
7:55 AM 17.4 °F 12.1 °F 14.5 °F 88% 30.19 in 4.0 mi WSW 3.5 mph - N/A   Clear
8:15 AM 18.5 °F 13.3 °F 15.8 °F 89% 30.20 in 5.0 mi WNW 3.5 mph - N/A   Clear
8:35 AM 22.5 °F 16.3 °F 19.2 °F 87% 30.22 in 4.0 mi WNW 4.6 mph - N/A   Clear
8:55 AM 25.2 °F 19.5 °F 20.8 °F 84% 30.23 in 5.0 mi WNW 4.6 mph - N/A   Clear
9:15 AM 27.5 °F 20.2 °F 22.1 °F 80% 30.24 in 5.0 mi NW 6.9 mph - N/A   Haze
9:35 AM 30.0 °F 22.4 °F 23.0 °F 75% 30.24 in 7.0 mi NW 8.1 mph - N/A   Clear
9:55 AM 32.4 °F 25.3 °F 24.4 °F 73% 30.24 in 5.0 mi WNW 8.1 mph - N/A   Haze
10:15 AM 35.1 °F 27.9 °F 25.3 °F 68% 30.26 in 7.0 mi WNW 9.2 mph - N/A   Clear
10:35 AM 37.8 °F 31.8 °F 26.1 °F 63% 30.26 in 10.0 mi WNW 8.1 mph - N/A   Clear
10:55 AM 41.2 °F 35.5 °F 27.0 °F 57% 30.25 in 7.0 mi West 9.2 mph - N/A   Clear
11:15 AM 45.1 °F 41.4 °F 27.3 °F 50% 30.25 in 10.0 mi WNW 6.9 mph - N/A   Clear
11:35 AM 48.6 °F - 27.1 °F 43% 30.25 in 10.0 mi NNW 6.9 mph - N/A   Clear
11:55 AM 51.6 °F - 26.2 °F 37% 30.23 in 10.0 mi North 6.9 mph - N/A   Clear
12:15 PM 53.4 °F - 26.1 °F 35% 30.23 in 10.0 mi NNW 6.9 mph - N/A   Clear
12:35 PM 55.4 °F - 26.4 °F 33% 30.22 in 10.0 mi North 8.1 mph - N/A   Clear
12:55 PM 57.0 °F - 26.6 °F 31% 30.22 in 10.0 mi NNW 10.4 mph 17.3 mph N/A   Clear
1:15 PM 58.3 °F - 26.1 °F 29% 30.19 in 10.0 mi NNE 6.9 mph - N/A   Clear
1:35 PM 58.8 °F - 25.9 °F 28% 30.18 in 10.0 mi North 8.1 mph - N/A   Clear
1:55 PM 59.9 °F - 24.8 °F 26% 30.17 in 10.0 mi NNW 5.8 mph - N/A   Clear
2:15 PM 61.2 °F - 22.8 °F 23% 30.16 in 10.0 mi NNE 5.8 mph - N/A   Clear
2:35 PM 61.7 °F - 22.3 °F 22% 30.14 in 10.0 mi ENE 5.8 mph - N/A   Clear
2:55 PM 61.3 °F - 22.1 °F 22% 30.13 in 10.0 mi Calm Calm - N/A   Clear
3:15 PM 63.0 °F - 21.6 °F 20% 30.12 in 10.0 mi North 4.6 mph - N/A   Clear
3:35 PM 61.9 °F - 21.2 °F 21% 30.10 in 10.0 mi NW 3.5 mph - N/A   Clear
3:55 PM 62.4 °F - 19.2 °F 19% 30.09 in 10.0 mi North 4.6 mph - N/A   Clear
4:15 PM 62.8 °F - 20.1 °F 19% 30.09 in 10.0 mi NW 3.5 mph - N/A   Clear
4:35 PM 62.6 °F - 19.8 °F 19% 30.09 in 10.0 mi Calm Calm - N/A   Clear
4:55 PM 62.2 °F - 19.6 °F 19% 30.09 in 10.0 mi WNW 3.5 mph - N/A   Clear
5:15 PM 61.9 °F - 19.0 °F 19% 30.09 in 10.0 mi WSW 4.6 mph - N/A   Clear
5:35 PM 61.7 °F - 18.9 °F 19% 30.09 in 10.0 mi WSW 3.5 mph - N/A   Clear
5:55 PM 60.6 °F - 19.2 °F 20% 30.09 in 10.0 mi WSW 3.5 mph - N/A   Clear
6:15 PM 60.1 °F - 19.4 °F 21% 30.09 in 10.0 mi Calm Calm - N/A   Clear
6:35 PM 58.6 °F - 19.4 °F 22% 30.07 in 10.0 mi SE 3.5 mph - N/A   Clear
6:55 PM 55.4 °F - 19.9 °F 25% 30.07 in 7.0 mi SSE 4.6 mph - N/A   Clear
7:15 PM 52.2 °F - 19.8 °F 28% 30.07 in 7.0 mi SSE 5.8 mph - N/A   Clear
7:35 PM 49.8 °F - 19.4 °F 30% 30.07 in 7.0 mi SSE 8.1 mph - N/A   Clear
7:55 PM 47.3 °F - 18.9 °F 32% 30.07 in 10.0 mi SSE 8.1 mph - N/A   Clear
8:15 PM 46.0 °F 43.9 °F 18.7 °F 34% 30.07 in 10.0 mi SSE 4.6 mph - N/A   Clear
8:35 PM 44.4 °F 41.2 °F 18.3 °F 35% 30.07 in 10.0 mi SSE 5.8 mph - N/A   Clear
8:55 PM 43.9 °F 41.3 °F 18.3 °F 36% 30.07 in 10.0 mi SSE 4.6 mph - N/A   Clear
9:15 PM 42.1 °F 38.4 °F 17.4 °F 37% 30.06 in 10.0 mi South 5.8 mph - N/A   Clear
9:35 PM 41.4 °F 39.4 °F 17.4 °F 38% 30.06 in 10.0 mi South 3.5 mph - N/A   Clear
9:55 PM 39.2 °F 33.6 °F 16.7 °F 40% 30.05 in 10.0 mi SSW 8.1 mph - N/A   Clear
10:15 PM 38.3 °F 33.2 °F 16.5 °F 41% 30.04 in 10.0 mi SSW 6.9 mph - N/A   Clear
10:35 PM 38.1 °F 35.7 °F 16.3 °F 41% 30.04 in 10.0 mi SW 3.5 mph - N/A   Clear
10:55 PM 37.4 °F 33.8 °F 16.7 °F 43% 30.03 in 10.0 mi SW 4.6 mph - N/A   Clear
11:15 PM 37.6 °F - 17.1 °F 43% 30.03 in 10.0 mi Calm Calm - N/A   Clear
11:35 PM 36.1 °F - 16.7 °F 45% 30.02 in 10.0 mi Calm Calm - N/A   Clear
11:55 PM 37.2 °F 33.6 °F 17.6 °F 45% 30.02 in 10.0 mi South 4.6 mph - N/A   Clear